• In Netherlands
  • List of Countries
  • For 7 days
  • Water Temperature
  • Satellite Maps
  • Weather Map
  • Weather Widgets
  • user-avatar
    Login

    Hourly Weather Saidpur

    Today, 21 February, Tuesday

    Time Temperature Precipitation Wind Pressure Humidity
    00:00 +23°C° 0 mm 1 mps 752 mmHg 56%
    01:00 +23°C° 0 mm 1 mps 752 mmHg 56%
    02:00 +23°C° 0 mm 1 mps 751 mmHg 57%
    03:00 +23°C° 0 mm 1 mps 751 mmHg 57%
    04:00 +22°C° 0 mm 1 mps 751 mmHg 58%
    05:00 +22°C° 0 mm 1 mps 752 mmHg 59%
    06:00 +22°C° 0 mm 1 mps 751 mmHg 55%
    07:00 +24°C° 0 mm 2 mps 752 mmHg 49%
    08:00 +26°C° 0 mm 2 mps 753 mmHg 44%
    09:00 +28°C° 0 mm 2 mps 753 mmHg 38%
    10:00 +31°C° 0 mm 2 mps 753 mmHg 32%
    11:00 +34°C° 0 mm 3 mps 753 mmHg 27%
    12:00 +36°C° 0 mm 1 mps 753 mmHg 20%
    13:00 +38°C° 0 mm 2 mps 753 mmHg 19%
    14:00 +38°C° 0 mm 2 mps 752 mmHg 18%
    15:00 +38°C° 0 mm 3 mps 751 mmHg 17%
    16:00 +36°C° 0 mm 2 mps 751 mmHg 20%
    17:00 +34°C° 0 mm 2 mps 751 mmHg 22%
    18:00 +31°C° 0 mm 1 mps 751 mmHg 25%
    19:00 +30°C° 0 mm 2 mps 751 mmHg 27%
    20:00 +29°C° 0 mm 2 mps 752 mmHg 29%
    21:00 +28°C° 0 mm 2 mps 752 mmHg 31%
    22:00 +27°C° 0 mm 2 mps 752 mmHg 35%
    23:00 +26°C° 0 mm 2 mps 753 mmHg 39%

    Tomorrow, 22 February, Wednesday

    Time Temperature Precipitation Wind Pressure Humidity
    00:00 +25°C° 0 mm 2 mps 753 mmHg 43%
    01:00 +24°C° 0 mm 2 mps 753 mmHg 48%
    02:00 +24°C° 0 mm 2 mps 752 mmHg 53%
    03:00 +23°C° 0 mm 2 mps 752 mmHg 58%
    04:00 +23°C° 0 mm 2 mps 752 mmHg 65%
    05:00 +23°C° 0 mm 2 mps 753 mmHg 72%
    06:00 +21°C° 0 mm 2 mps 753 mmHg 79%
    07:00 +24°C° 0 mm 2 mps 753 mmHg 77%
    08:00 +25°C° 0 mm 2 mps 754 mmHg 74%
    09:00 +26°C° 0 mm 2 mps 755 mmHg 71%
    10:00 +29°C° 0 mm 2 mps 755 mmHg 62%
    11:00 +31°C° 0 mm 2 mps 755 mmHg 53%
    12:00 +34°C° 0 mm 2 mps 755 mmHg 44%
    13:00 +35°C° 0.1 mm 2 mps 754 mmHg 38%
    14:00 +36°C° 0.1 mm 2 mps 753 mmHg 31%
    15:00 +37°C° 0.1 mm 3 mps 752 mmHg 24%
    16:00 +35°C° 0.1 mm 2 mps 752 mmHg 27%
    17:00 +32°C° 0.1 mm 2 mps 752 mmHg 30%
    18:00 +30°C° 0.1 mm 2 mps 752 mmHg 33%
    19:00 +29°C° 0 mm 2 mps 753 mmHg 41%
    20:00 +27°C° 0 mm 2 mps 753 mmHg 49%
    21:00 +26°C° 0 mm 2 mps 754 mmHg 57%
    22:00 +25°C° 0 mm 2 mps 754 mmHg 66%
    23:00 +24°C° 0 mm 2 mps 754 mmHg 76%

    Day after tomorrow, 23 February, Thursday

    Time Temperature Precipitation Wind Pressure Humidity
    00:00 +23°C° 0 mm 2 mps 754 mmHg 85%
    01:00 +23°C° 0 mm 1 mps 754 mmHg 88%
    02:00 +22°C° 0 mm 1 mps 754 mmHg 90%
    03:00 +22°C° 0 mm 1 mps 754 mmHg 93%
    04:00 +21°C° 0 mm 1 mps 754 mmHg 91%
    05:00 +21°C° 0 mm 1 mps 754 mmHg 89%
    06:00 +21°C° 0 mm 1 mps 754 mmHg 88%
    07:00 +23°C° 0 mm 1 mps 755 mmHg 77%
    08:00 +25°C° 0 mm 1 mps 756 mmHg 66%
    09:00 +27°C° 0 mm 1 mps 757 mmHg 55%
    10:00 +29°C° 0 mm 2 mps 756 mmHg 43%
    11:00 +32°C° 0 mm 2 mps 756 mmHg 32%
    12:00 +35°C° 0 mm 3 mps 756 mmHg 21%
    13:00 +35°C° 0 mm 3 mps 755 mmHg 17%
    14:00 +36°C° 0 mm 4 mps 755 mmHg 14%
    15:00 +36°C° 0 mm 5 mps 754 mmHg 10%
    16:00 +34°C° 0 mm 4 mps 754 mmHg 12%
    17:00 +31°C° 0 mm 3 mps 754 mmHg 14%
    18:00 +29°C° 0 mm 2 mps 754 mmHg 16%
    19:00 +27°C° 0 mm 2 mps 754 mmHg 18%
    20:00 +26°C° 0 mm 2 mps 755 mmHg 20%
    21:00 +24°C° 0 mm 2 mps 756 mmHg 22%
    22:00 +23°C° 0 mm 2 mps 756 mmHg 24%
    23:00 +23°C° 0 mm 2 mps 756 mmHg 26%

    24 February, Friday

    Time Temperature Precipitation Wind Pressure Humidity
    00:00 +21°C° 0 mm 2 mps 756 mmHg 29%
    01:00 +20°C° 0 mm 2 mps 755 mmHg 30%
    02:00 +20°C° 0 mm 1 mps 755 mmHg 32%
    03:00 +20°C° 0 mm 1 mps 755 mmHg 34%
    04:00 +19°C° 0 mm 1 mps 755 mmHg 34%
    05:00 +19°C° 0 mm 1 mps 755 mmHg 35%
    06:00 +18°C° 0 mm 1 mps 755 mmHg 36%
    07:00 +20°C° 0 mm 1 mps 756 mmHg 32%
    08:00 +23°C° 0 mm 2 mps 757 mmHg 28%
    09:00 +25°C° 0 mm 2 mps 758 mmHg 24%
    10:00 +27°C° 0 mm 2 mps 758 mmHg 21%
    11:00 +29°C° 0 mm 2 mps 758 mmHg 17%
    12:00 +33°C° 0 mm 3 mps 758 mmHg 14%
    13:00 +33°C° 0 mm 3 mps 757 mmHg 13%
    14:00 +34°C° 0 mm 3 mps 756 mmHg 12%
    15:00 +34°C° 0 mm 4 mps 755 mmHg 11%
    16:00 +31°C° 0 mm 3 mps 755 mmHg 13%
    17:00 +29°C° 0 mm 3 mps 755 mmHg 14%
    18:00 +27°C° 0 mm 2 mps 755 mmHg 16%
    19:00 +25°C° 0 mm 2 mps 756 mmHg 17%
    20:00 +24°C° 0 mm 2 mps 756 mmHg 18%
    21:00 +21°C° 0 mm 2 mps 757 mmHg 19%
    22:00 +21°C° 0 mm 2 mps 757 mmHg 20%
    23:00 +21°C° 0 mm 1 mps 757 mmHg 21%

    25 February, Saturday

    Time Temperature Precipitation Wind Pressure Humidity
    00:00 +20°C° 0 mm 1 mps 757 mmHg 22%
    01:00 +19°C° 0 mm 1 mps 756 mmHg 23%
    02:00 +18°C° 0 mm 1 mps 756 mmHg 24%
    03:00 +18°C° 0 mm 1 mps 756 mmHg 25%
    04:00 +16°C° 0 mm 1 mps 756 mmHg 27%
    05:00 +16°C° 0 mm 1 mps 756 mmHg 28%
    06:00 +15°C° 0 mm 1 mps 757 mmHg 29%
    07:00 +19°C° 0 mm 1 mps 757 mmHg 26%
    08:00 +22°C° 0 mm 1 mps 758 mmHg 23%
    09:00 +25°C° 0 mm 1 mps 759 mmHg 21%
    10:00 +27°C° 0 mm 1 mps 759 mmHg 18%
    11:00 +29°C° 0 mm 1 mps 758 mmHg 15%
    12:00 +32°C° 0 mm 1 mps 758 mmHg 12%
    13:00 +32°C° 0 mm 1 mps 757 mmHg 11%
    14:00 +34°C° 0 mm 2 mps 756 mmHg 10%
    15:00 +34°C° 0 mm 2 mps 755 mmHg 9%
    16:00 +31°C° 0 mm 2 mps 755 mmHg 11%
    17:00 +28°C° 0 mm 2 mps 755 mmHg 13%
    18:00 +26°C° 0 mm 2 mps 755 mmHg 15%
    19:00 +25°C° 0 mm 1 mps 756 mmHg 17%
    20:00 +23°C° 0 mm 1 mps 756 mmHg 18%
    21:00 +22°C° 0 mm 1 mps 757 mmHg 19%
    22:00 +21°C° 0 mm 1 mps 756 mmHg 20%
    23:00 +20°C° 0 mm 1 mps 756 mmHg 21%

    26 February, Sunday

    Time Temperature Precipitation Wind Pressure Humidity
    00:00 +20°C° 0 mm 1 mps 756 mmHg 22%
    01:00 +19°C° 0 mm 1 mps 756 mmHg 24%
    02:00 +18°C° 0 mm 1 mps 755 mmHg 27%
    03:00 +18°C° 0 mm 1 mps 755 mmHg 30%
    04:00 +16°C° 0 mm 1 mps 755 mmHg 33%
    05:00 +16°C° 0 mm 1 mps 755 mmHg 35%
    06:00 +15°C° 0 mm 1 mps 756 mmHg 38%
    07:00 +19°C° 0 mm 1 mps 756 mmHg 33%
    08:00 +23°C° 0 mm 1 mps 757 mmHg 27%
    09:00 +26°C° 0 mm 1 mps 758 mmHg 22%
    10:00 +28°C° 0 mm 1 mps 758 mmHg 19%
    11:00 +31°C° 0 mm 1 mps 757 mmHg 15%
    12:00 +33°C° 0 mm 1 mps 757 mmHg 11%
    13:00 +33°C° 0 mm 1 mps 756 mmHg 11%
    14:00 +35°C° 0 mm 2 mps 755 mmHg 10%
    15:00 +35°C° 0 mm 2 mps 754 mmHg 10%
    16:00 +32°C° 0 mm 2 mps 754 mmHg 12%
    17:00 +30°C° 0 mm 2 mps 754 mmHg 15%
    18:00 +27°C° 0 mm 1 mps 754 mmHg 18%
    19:00 +26°C° 0 mm 1 mps 755 mmHg 20%
    20:00 +24°C° 0 mm 1 mps 755 mmHg 22%
    21:00 +23°C° 0 mm 1 mps 755 mmHg 23%
    22:00 +22°C° 0 mm 1 mps 755 mmHg 25%
    23:00 +22°C° 0 mm 1 mps 755 mmHg 27%
    Show more